Weather History for KEWN - April, 2012

Change the Weather History Date:

Friday, April 6, 2012

  Actual Average Record
Temperature  
Mean Temperature 49 °F 59 °F  
Max Temperature 58 °F 71 °F 90 °F (2010)
Min Temperature 39 °F 48 °F 30 °F (2004)
Degree Days  
Heating Degree Days 16 7  
Month to date heating degree days 41 45  
Since 1 July heating degree days 1997 2560  
Cooling Degree Days 0 1  
Month to date cooling degree days 7 6  
Year to date cooling degree days 65 20  
Moisture  
Dew Point 42 °F    
Average Humidity 68    
Maximum Humidity 86    
Minimum Humidity 50    
Precipitation  
Precipitation 0.46 in 0.11 in 1.99 in (1971)
Month to date precipitation 1.27 0.67  
Year to date precipitation 9.05 12.74  
Snow  
Snow 0.00 in - - ()
Month to date snowfall 0.0  
Since 1 July snowfall T  
Snow Depth 0.00 in    
Sea Level Pressure  
Sea Level Pressure 29.91 in    
Wind  
Wind Speed 10 mph (NNE)    
Max Wind Speed 22 mph    
Max Gust Speed 29 mph    
Visibility 9 miles    
Events Rain    
T = Trace of Precipitation, MM = Missing Value Source: NWS Daily Summary

Daily Weather History Graph

Daily Weather History Graph

Search for Another Location

Airport or City:

Trip Planner

Search our weather history database for the weather conditions in past years. The results will help you decide how hot, cold, wet, or windy it might be!

Date:

Astronomy

Apr. 06, 2012 Rise Set
Actual Time 6:47 AM EDT 7:33 PM EDT
Civil Twilight 6:21 AM EDT 7:59 PM EDT
Nautical Twilight 5:51 AM EDT 8:30 PM EDT
Astronomical Twilight 5:20 AM EDT 9:01 PM EDT
Moon 7:48 PM EDT (4/6) 6:19 AM EDT (4/6)
Length of Visible Light 13h 37m
Length of Day
12h 46m
Full, 100% of the Moon is Illuminated
Apr 6
Full
Apr 6
Full
Apr 13
Last Quarter
Apr 21
New
Apr 29
First Quarter

Hourly Weather History & Observations

Time (EDT) Temp. Windchill Dew Point Humidity Pressure Visibility Wind Dir Wind Speed Gust Speed Precip Events Conditions
12:54 AM 48.0 °F - 44.1 °F 86% 29.85 in 6.0 mi NNW 5.8 mph - 0.11 in Rain Rain
1:54 AM 48.0 °F - 44.1 °F 86% 29.82 in 10.0 mi North 10.4 mph - 0.03 in Rain Light Rain
2:54 AM 48.0 °F - 44.1 °F 86% 29.81 in 10.0 mi NNE 10.4 mph - 0.01 in Rain Light Rain
3:54 AM 46.4 °F 40.1 °F 42.8 °F 87% 29.79 in 10.0 mi NNE 15.0 mph - N/A Rain Light Rain
4:54 AM 48.0 °F - 42.1 °F 80% 29.78 in 10.0 mi NNE 12.7 mph 21.9 mph 0.01 in Rain Light Rain
5:54 AM 48.9 °F - 43.0 °F 80% 29.79 in 10.0 mi NE 11.5 mph 18.4 mph 0.01 in Rain Light Rain
6:54 AM 48.0 °F - 44.1 °F 86% 29.82 in 5.0 mi NE 13.8 mph - 0.04 in Rain Rain
7:54 AM 48.0 °F - 45.0 °F 89% 29.86 in 4.0 mi NNE 8.1 mph 17.3 mph 0.09 in Rain Rain
8:54 AM 48.0 °F - 45.0 °F 89% 29.86 in 6.0 mi NNE 12.7 mph - 0.13 in Rain Rain
9:54 AM 48.0 °F - 44.1 °F 86% 29.88 in 10.0 mi NNE 17.3 mph 21.9 mph 0.05 in Rain Light Rain
10:54 AM 48.0 °F - 45.0 °F 89% 29.91 in 7.0 mi NNE 10.4 mph - 0.05 in Rain Light Rain
11:54 AM 50.0 °F - 46.0 °F 86% 29.91 in 10.0 mi NNE 11.5 mph - 0.02 in Rain Light Rain
12:21 PM 51.8 °F - 46.4 °F 82% 29.90 in 10.0 mi NNE 13.8 mph - 0.01 in Rain Light Rain
12:54 PM 51.1 °F - 46.0 °F 83% 29.91 in 10.0 mi North 13.8 mph - 0.01 in   Overcast
1:15 PM 51.8 °F - 46.4 °F 82% 29.91 in 10.0 mi NNE 15.0 mph 20.7 mph N/A   Overcast
1:54 PM 52.0 °F - 46.0 °F 80% 29.91 in 10.0 mi North 17.3 mph 21.9 mph N/A   Overcast
2:54 PM 53.1 °F - 41.0 °F 64% 29.91 in 10.0 mi NNE 18.4 mph 25.3 mph N/A   Overcast
3:54 PM 53.1 °F - 37.9 °F 57% 29.93 in 10.0 mi NNE 17.3 mph 26.5 mph N/A   Scattered Clouds
4:54 PM 55.9 °F - 41.0 °F 57% 29.93 in 10.0 mi NNE 11.5 mph 21.9 mph N/A   Clear
5:54 PM 57.2 °F - 41.0 °F 55% 29.94 in 10.0 mi NNE 9.2 mph 20.7 mph N/A   Clear
6:54 PM 55.9 °F - 39.0 °F 53% 29.97 in 10.0 mi NNE 9.2 mph - N/A   Clear
7:54 PM 53.1 °F - 36.0 °F 52% 29.99 in 10.0 mi NNE 8.1 mph - N/A   Clear
8:54 PM 50.0 °F - 37.0 °F 61% 30.02 in 10.0 mi NNE 6.9 mph - N/A   Clear
9:54 PM 48.0 °F - 37.0 °F 66% 30.05 in 10.0 mi Calm Calm - N/A   Clear
10:54 PM 43.0 °F - 35.1 °F 74% 30.06 in 10.0 mi Calm Calm - N/A   Clear
11:54 PM 41.0 °F - 36.0 °F 82% 30.08 in 10.0 mi Calm Calm - N/A   Clear